Weather History for Santee, CA

Change the Weather History Date:

Tuesday, October 22, 2013

  Actual Average Record
Temperature  
Mean Temperature 64 °F -  
Max Temperature 78 °F 78 °F 100 °F (2008)
Min Temperature 51 °F 52 °F 41 °F (1996)
Growing Degree Days 14 (Base 50)    
Moisture  
Dew Point 55 °F    
Average Humidity 73    
Maximum Humidity 100    
Minimum Humidity 42    
Precipitation  
Precipitation 0.08 in - - ()
Sea Level Pressure  
Sea Level Pressure 29.96 in    
Wind  
Wind Speed 4 mph (West)    
Max Wind Speed 9 mph    
Max Gust Speed 16 mph    
Visibility 7 miles    
Events Fog    
Averages and records for this station are not official NWS values.
T = Trace of Precipitation, MM = Missing Value Source: NWS Daily Summary

Daily Weather History Graph

Daily Weather History Graph

Search for Another Location

Airport:

Trip Planner

Search our weather history database for the weather conditions in past years. The results will help you decide how hot, cold, wet, or windy it might be!

Date:

Astronomy

Oct. 22, 2013 Rise Set
Actual Time 6:57 AM PDT 6:06 PM PDT
Civil Twilight 6:32 AM PDT 6:31 PM PDT
Nautical Twilight 6:03 AM PDT 7:00 PM PDT
Astronomical Twilight 5:35 AM PDT 7:28 PM PDT
Moon 8:58 PM PDT (10/22) 10:21 AM PDT (10/22)
Length of Visible Light 11h 58m
Length of Day
11h 08m
Waning Gibbous, 86% of the Moon is Illuminated
Oct 22
Waning Gibbous
Oct 26
Last Quarter
Nov 3
New
Nov 9
First Quarter
Nov 17
Full

Hourly Weather History & Observations

Time (PDT) Temp. Dew Point Humidity Pressure Visibility Wind Dir Wind Speed Gust Speed Precip Events Conditions
6:50 AM 53.6 °F 53.6 °F 100% 30.00 in 0.3 mi Calm Calm - N/A Fog Fog
7:47 AM 51.8 °F 51.8 °F 100% 30.01 in 0.1 mi Calm Calm - N/A Fog Fog
8:47 AM 51.8 °F 51.8 °F 100% 30.01 in 0.5 mi Calm Calm - N/A Fog Fog
10:47 AM 59.0 °F 57.2 °F 94% 30.01 in 3.0 mi Calm Calm - N/A   Overcast
11:20 AM - - N/A% 30.01 in 10.0 mi Variable 5.8 mph - N/A   Partly Cloudy
11:55 AM 66.2 °F 55.4 °F 68% 30.00 in 5.0 mi West 3.5 mph - N/A   Haze
12:15 PM 69.8 °F 53.6 °F 56% 29.98 in - West 3.5 mph - N/A   Unknown
12:35 PM 71.6 °F 53.6 °F 53% 29.97 in 8.0 mi West 3.5 mph - N/A   Clear
12:55 PM 75.2 °F 53.6 °F 47% 29.96 in 9.0 mi West 4.6 mph - N/A   Clear
1:15 PM 75.2 °F 53.6 °F 47% 29.95 in 9.0 mi South 4.6 mph - N/A   Clear
1:35 PM 77.0 °F 53.6 °F 44% 29.95 in 6.0 mi WNW 6.9 mph - N/A   Haze
1:55 PM 78.8 °F 53.6 °F 42% 29.94 in 9.0 mi SW 6.9 mph - 0.04 in   Clear
2:15 PM 78.8 °F 53.6 °F 42% 29.93 in 10.0 mi SSW 5.8 mph - N/A   Clear
2:35 PM 78.8 °F 55.4 °F 44% 29.93 in 10.0 mi West 8.1 mph - 0.04 in   Clear
2:55 PM 78.8 °F 53.6 °F 42% 29.93 in 10.0 mi West 9.2 mph - 0.04 in   Clear
3:15 PM - - N/A% 29.93 in 10.0 mi WNW 8.1 mph - N/A   Clear
3:35 PM 75.2 °F 53.6 °F 47% 29.93 in 10.0 mi West 9.2 mph 16.1 mph N/A   Clear
3:47 PM - - N/A% 29.93 in 15.0 mi WSW 9.2 mph - N/A   Clear
3:55 PM 75.2 °F 53.6 °F 47% 29.93 in 8.0 mi West 6.9 mph - N/A   Clear
4:15 PM 73.4 °F 53.6 °F 50% 29.93 in 10.0 mi WNW 8.1 mph - N/A   Clear
4:35 PM 71.6 °F 53.6 °F 53% 29.93 in 10.0 mi WNW 6.9 mph - N/A   Clear
4:55 PM 71.6 °F 53.6 °F 53% 29.93 in 10.0 mi WNW 8.1 mph - N/A   Clear
5:15 PM 69.8 °F 53.6 °F 56% 29.93 in 9.0 mi West 8.1 mph - N/A   Clear
5:35 PM 68.0 °F 53.6 °F 60% 29.93 in 9.0 mi West 6.9 mph - N/A   Clear
5:55 PM 66.2 °F 53.6 °F 64% 29.93 in 10.0 mi WNW 8.1 mph - N/A   Clear
6:15 PM 64.4 °F 53.6 °F 68% 29.94 in 9.0 mi West 8.1 mph - N/A   Clear
6:35 PM 62.6 °F 55.4 °F 77% 29.94 in 10.0 mi WNW 6.9 mph - N/A   Clear
6:55 PM 62.6 °F 55.4 °F 77% 29.95 in 8.0 mi WNW 6.9 mph - N/A   Clear
7:35 PM 60.8 °F 55.4 °F 82% 29.96 in 7.0 mi West 5.8 mph - N/A   Clear
8:15 PM 59.0 °F 55.4 °F 88% 29.96 in 5.0 mi West 4.6 mph - N/A   Clear
8:35 PM 57.2 °F 55.4 °F 94% 29.96 in 5.0 mi WNW 4.6 mph - N/A   Clear
8:55 PM 57.2 °F 55.4 °F 94% 29.96 in 5.0 mi WNW 3.5 mph - N/A   Clear
9:15 PM 57.2 °F 55.4 °F 94% 29.96 in 5.0 mi West 3.5 mph - N/A   Clear
9:35 PM 57.2 °F 57.2 °F 100% 29.96 in 5.0 mi WNW 3.5 mph - N/A   Clear
9:55 PM 57.2 °F 57.2 °F 100% 29.97 in 5.0 mi Calm Calm - N/A   Partly Cloudy
10:15 PM 57.2 °F 57.2 °F 100% 29.97 in 4.0 mi Calm Calm - N/A   Mostly Cloudy
10:35 PM 57.2 °F 57.2 °F 100% 29.97 in 5.0 mi Calm Calm - N/A   Overcast
10:55 PM 57.2 °F 57.2 °F 100% 29.97 in 5.0 mi Calm Calm - N/A   Overcast
11:15 PM 59.0 °F 57.2 °F 94% 29.97 in 5.0 mi Calm Calm - N/A   Overcast
11:35 PM 59.0 °F 57.2 °F 94% 29.97 in 5.0 mi Calm Calm - N/A   Overcast
11:55 PM 59.0 °F 57.2 °F 94% 29.97 in 5.0 mi WSW 3.5 mph - N/A   Overcast